Location: Fort Wayne
(41.1310°N, 85.1290°W)
Time: 07:03:47
(UTC-04:00)

Cosmos 1000 Rocket - Visible Passes

Search period start: 18 October 2017 00:00
Search period end: 28 October 2017 00:00
Orbit: 954 x 992 km, 82.9° (Epoch: 17 October)

Date Brightness Start Highest point End Pass type
(mag) Time Alt. Az. Time Alt. Az. Time Alt. Az.
18 Oct 4.5 20:36:02 10° N 20:42:18 85° W 20:48:28 10° S visible
18 Oct 7.3 22:24:41 10° WNW 22:26:34 11° WNW 22:28:25 10° W visible
19 Oct 5.4 19:16:11 10° NNE 19:21:17 26° ENE 19:26:18 10° SE visible
19 Oct 5.4 21:00:55 10° NNW 21:06:51 48° W 21:12:42 10° SSW visible
20 Oct 4.7 19:40:17 10° N 19:46:14 45° ENE 19:52:05 10° SSE visible
20 Oct 6.4 21:26:11 10° NNW 21:31:14 27° W 21:36:14 10° SW visible
21 Oct 7.5 07:27:42 10° ESE 07:30:46 14° E 07:33:50 10° NE visible
21 Oct 4.4 20:04:45 10° N 20:11:00 80° E 20:17:10 10° S visible
21 Oct 7.2 21:52:18 10° NW 21:55:27 14° W 21:58:35 10° WSW visible
22 Oct 5.1 20:29:31 10° NNW 20:35:36 58° W 20:41:37 10° S visible
23 Oct 5.0 19:09:08 10° N 19:14:51 37° ENE 19:20:29 10° SE visible
23 Oct 6.2 20:54:38 10° NNW 21:00:03 32° W 21:05:24 10° SSW visible
24 Oct 7.8 06:58:04 10° E 06:59:40 11° ENE 07:01:16 10° ENE visible
24 Oct 4.4 19:33:29 10° N 19:39:41 66° E 19:45:47 10° SSE visible
24 Oct 7.1 21:20:22 10° NW 21:24:19 18° W 21:28:15 10° WSW visible
25 Oct 7.2 07:19:17 10° SE 07:23:50 21° E 07:28:22 10° NE visible
25 Oct 4.8 19:58:10 10° NNW 20:04:20 71° W 20:10:26 10° S visible
26 Oct 5.9 20:23:09 10° NNW 20:28:50 39° W 20:34:27 10° SSW visible
27 Oct 4.6 19:02:16 10° N 19:08:20 54° ENE 19:14:19 10° SSE visible
27 Oct 6.9 20:48:37 10° NW 20:53:10 22° W 20:57:41 10° SW visible
